Overview Statistics Trail Chart Weather Telemetry Raw packets
 

This is the latest recevied weather packets stored in our database for station/object JE7UPL-13. If no packets are shown the sender has not sent any weather packets the latest 10 day(s).

<< 1 2 3 4 5 >>
Time Temp. Humidity Pressure Rain* Wind** Luminosity Snow
1788562806 23.33° C 63% 1011.1 hPa 0 mm - - -
1788561906 25° C 63% 1011.2 hPa 0 mm - - -
1788561006 22.22° C 70% 1011 hPa 0 mm - - -
1788560105 21.67° C 74% 1010.8 hPa 0 mm - - -
1788559206 21.67° C 81% 1011 hPa 0 mm - - -
1788558306 21.11° C 90% 1010.9 hPa 0 mm - - -
1788557405 19.44° C 93% 1010.6 hPa 0 mm - - -
1788556506 18.89° C 95% 1010.4 hPa 0 mm - - -
1788555605 17.78° C 93% 1010.6 hPa 0 mm - - -
1788554705 16.11° C 93% 1010.4 hPa 0 mm - - -
1788553806 16.11° C 94% 1010.4 hPa 0 mm - - -
1788552905 16.11° C 93% 1010.4 hPa 0 mm - - -
1788552006 16.11° C 93% 1010.1 hPa 0 mm - - -
1788551105 16.11° C 93% 1009.6 hPa 0 mm - - -
1788550206 16.11° C 93% 1009.6 hPa 0 mm - - -
1788549306 16.11° C 92% 1009.7 hPa 0 mm - - -
1788548406 16.67° C 93% 1009.8 hPa 0 mm - - -
1788547506 16.67° C 93% 1009.7 hPa 0 mm - - -
1788546605 16.11° C 92% 1009.6 hPa 0 mm - - -
1788545705 16.67° C 92% 1009.4 hPa 0 mm - - -
1788544806 16.67° C 92% 1009.6 hPa 0 mm - - -
1788543905 16.67° C 91% 1009.7 hPa 0 mm - - -
1788543006 16.67° C 91% 1009.7 hPa 0 mm - - -
1788542105 17.22° C 90% 1009.4 hPa 0 mm - - -
1788541206 17.22° C 89% 1009.7 hPa 0 mm - - -

* Rain latest hour (hover to see other rain measurements)
** Current wind speed in m/s (hover to see current wind gust speed)